When you browse on this site, cookies collect data to enhance your experience and personalize the content and advertising you see.
Visit our Privacy Policy to learn more. By continuing to use the site, you agree to this use of cookies and data.
EN

Hourly Weather Kolesnikov

Today, 19 September, Saturday

Time Temperature Precipitation Wind Pressure Humidity
00:00 +12°C° 0 mm 5 mps 756 mmHg 52%
01:00 +10°C° 0 mm 5 mps 757 mmHg 55%
02:00 +10°C° 0 mm 5 mps 757 mmHg 59%
03:00 +10°C° 0 mm 4 mps 757 mmHg 58%
04:00 +10°C° 0 mm 4 mps 758 mmHg 62%
05:00 +9°C° 0 mm 5 mps 758 mmHg 66%
06:00 +8°C° 0 mm 6 mps 758 mmHg 69%
07:00 +10°C° 0 mm 6 mps 759 mmHg 63%
08:00 +11°C° 0 mm 6 mps 759 mmHg 57%
09:00 +14°C° 0 mm 6 mps 759 mmHg 51%
10:00 +15°C° 0 mm 6 mps 759 mmHg 47%
11:00 +17°C° 0 mm 6 mps 759 mmHg 42%
12:00 +19°C° 0 mm 6 mps 759 mmHg 38%
13:00 +20°C° 0 mm 6 mps 759 mmHg 37%
14:00 +20°C° 0 mm 6 mps 759 mmHg 37%
15:00 +21°C° 0 mm 6 mps 759 mmHg 36%
16:00 +20°C° 0 mm 5 mps 759 mmHg 37%
17:00 +20°C° 0 mm 5 mps 759 mmHg 38%
18:00 +19°C° 0 mm 4 mps 759 mmHg 38%
19:00 +18°C° 0 mm 4 mps 759 mmHg 42%
20:00 +16°C° 0 mm 3 mps 759 mmHg 46%
21:00 +14°C° 0 mm 3 mps 759 mmHg 49%
22:00 +13°C° 0 mm 3 mps 759 mmHg 49%
23:00 +14°C° 0 mm 2 mps 759 mmHg 49%

Tomorrow, 20 September, Sunday

Time Temperature Precipitation Wind Pressure Humidity
00:00 +13°C° 0 mm 2 mps 760 mmHg 50%
01:00 +13°C° 0 mm 2 mps 760 mmHg 52%
02:00 +13°C° 0 mm 2 mps 759 mmHg 54%
03:00 +12°C° 0 mm 2 mps 759 mmHg 57%
04:00 +12°C° 0 mm 2 mps 759 mmHg 59%
05:00 +12°C° 0 mm 2 mps 759 mmHg 61%
06:00 +10°C° 0 mm 2 mps 759 mmHg 63%
07:00 +13°C° 0 mm 3 mps 759 mmHg 55%
08:00 +15°C° 0 mm 4 mps 760 mmHg 47%
09:00 +18°C° 0 mm 4 mps 760 mmHg 39%
10:00 +19°C° 0 mm 4 mps 760 mmHg 34%
11:00 +21°C° 0 mm 5 mps 760 mmHg 28%
12:00 +23°C° 0 mm 5 mps 760 mmHg 23%
13:00 +23°C° 0 mm 5 mps 760 mmHg 23%
14:00 +23°C° 0 mm 5 mps 759 mmHg 24%
15:00 +25°C° 0 mm 5 mps 759 mmHg 25%
16:00 +22°C° 0 mm 5 mps 760 mmHg 26%
17:00 +21°C° 0 mm 4 mps 760 mmHg 27%
18:00 +20°C° 0 mm 3 mps 760 mmHg 28%
19:00 +19°C° 0 mm 3 mps 761 mmHg 32%
20:00 +17°C° 0 mm 3 mps 761 mmHg 36%
21:00 +14°C° 0 mm 3 mps 762 mmHg 40%
22:00 +13°C° 0 mm 3 mps 762 mmHg 43%
23:00 +12°C° 0 mm 3 mps 762 mmHg 46%

Day after tomorrow, 21 September, Monday

Time Temperature Precipitation Wind Pressure Humidity
00:00 +12°C° 0 mm 4 mps 763 mmHg 50%
01:00 +11°C° 0 mm 4 mps 763 mmHg 51%
02:00 +10°C° 0 mm 3 mps 763 mmHg 53%
03:00 +10°C° 0 mm 3 mps 763 mmHg 54%
04:00 +9°C° 0 mm 3 mps 763 mmHg 55%
05:00 +9°C° 0 mm 3 mps 763 mmHg 57%
06:00 +9°C° 0 mm 3 mps 764 mmHg 58%
07:00 +11°C° 0 mm 3 mps 764 mmHg 51%
08:00 +13°C° 0 mm 3 mps 764 mmHg 45%
09:00 +16°C° 0 mm 3 mps 764 mmHg 38%
10:00 +17°C° 0 mm 3 mps 764 mmHg 34%
11:00 +19°C° 0 mm 3 mps 764 mmHg 29%
12:00 +20°C° 0 mm 2 mps 764 mmHg 25%
13:00 +21°C° 0 mm 2 mps 763 mmHg 23%
14:00 +23°C° 0 mm 2 mps 763 mmHg 20%
15:00 +24°C° 0 mm 2 mps 762 mmHg 18%
16:00 +23°C° 0 mm 2 mps 762 mmHg 20%
17:00 +21°C° 0 mm 2 mps 762 mmHg 22%
18:00 +20°C° 0 mm 2 mps 762 mmHg 24%
19:00 +18°C° 0 mm 2 mps 762 mmHg 26%
20:00 +16°C° 0 mm 2 mps 763 mmHg 28%
21:00 +15°C° 0 mm 2 mps 763 mmHg 30%
22:00 +14°C° 0 mm 2 mps 763 mmHg 31%
23:00 +13°C° 0 mm 3 mps 763 mmHg 32%

22 September, Tuesday

Time Temperature Precipitation Wind Pressure Humidity
00:00 +12°C° 0 mm 3 mps 763 mmHg 33%
01:00 +12°C° 0 mm 3 mps 763 mmHg 34%
02:00 +11°C° 0 mm 3 mps 763 mmHg 35%
03:00 +11°C° 0 mm 3 mps 762 mmHg 36%
04:00 +11°C° 0 mm 3 mps 763 mmHg 37%
05:00 +10°C° 0 mm 3 mps 763 mmHg 38%
06:00 +10°C° 0 mm 3 mps 763 mmHg 39%
07:00 +12°C° 0 mm 3 mps 763 mmHg 34%
08:00 +16°C° 0 mm 3 mps 763 mmHg 30%
09:00 +18°C° 0 mm 3 mps 764 mmHg 25%
10:00 +20°C° 0 mm 3 mps 763 mmHg 22%
11:00 +22°C° 0 mm 3 mps 763 mmHg 19%
12:00 +24°C° 0 mm 3 mps 763 mmHg 16%
13:00 +25°C° 0 mm 3 mps 763 mmHg 15%
14:00 +26°C° 0 mm 3 mps 762 mmHg 14%
15:00 +27°C° 0 mm 3 mps 762 mmHg 13%
16:00 +25°C° 0 mm 3 mps 762 mmHg 14%
17:00 +24°C° 0 mm 2 mps 762 mmHg 15%
18:00 +23°C° 0 mm 2 mps 761 mmHg 16%
19:00 +20°C° 0 mm 2 mps 762 mmHg 18%
20:00 +19°C° 0 mm 3 mps 762 mmHg 20%
21:00 +17°C° 0 mm 3 mps 762 mmHg 22%
22:00 +16°C° 0 mm 3 mps 762 mmHg 24%
23:00 +16°C° 0 mm 3 mps 762 mmHg 26%

23 September, Wednesday

Time Temperature Precipitation Wind Pressure Humidity
00:00 +14°C° 0 mm 3 mps 762 mmHg 28%
01:00 +13°C° 0 mm 3 mps 762 mmHg 30%
02:00 +13°C° 0 mm 3 mps 762 mmHg 32%
03:00 +12°C° 0 mm 3 mps 761 mmHg 33%
04:00 +12°C° 0 mm 3 mps 762 mmHg 34%
05:00 +12°C° 0 mm 3 mps 762 mmHg 35%
06:00 +11°C° 0 mm 3 mps 762 mmHg 36%
07:00 +14°C° 0 mm 4 mps 762 mmHg 34%
08:00 +17°C° 0 mm 4 mps 762 mmHg 33%
09:00 +19°C° 0 mm 4 mps 762 mmHg 31%
10:00 +22°C° 0 mm 5 mps 761 mmHg 29%
11:00 +25°C° 0 mm 5 mps 761 mmHg 26%
12:00 +27°C° 0 mm 6 mps 761 mmHg 24%
13:00 +27°C° 0 mm 5 mps 760 mmHg 23%
14:00 +28°C° 0 mm 5 mps 759 mmHg 22%
15:00 +29°C° 0 mm 5 mps 759 mmHg 21%
16:00 +27°C° 0 mm 5 mps 758 mmHg 23%
17:00 +26°C° 0 mm 4 mps 758 mmHg 25%
18:00 +25°C° 0 mm 3 mps 758 mmHg 27%
19:00 +24°C° 0 mm 3 mps 758 mmHg 30%
20:00 +21°C° 0 mm 4 mps 758 mmHg 34%
21:00 +20°C° 0 mm 4 mps 758 mmHg 37%
22:00 +19°C° 0 mm 4 mps 758 mmHg 39%
23:00 +18°C° 0 mm 4 mps 758 mmHg 42%

24 September, Thursday

Time Temperature Precipitation Wind Pressure Humidity
00:00 +17°C° 0 mm 4 mps 758 mmHg 45%
01:00 +17°C° 0 mm 4 mps 758 mmHg 46%
02:00 +15°C° 0 mm 4 mps 758 mmHg 48%
03:00 +15°C° 0 mm 4 mps 758 mmHg 50%
04:00 +14°C° 0 mm 4 mps 758 mmHg 51%
05:00 +14°C° 0 mm 4 mps 758 mmHg 52%
06:00 +14°C° 0 mm 4 mps 758 mmHg 53%
07:00 +15°C° 0 mm 4 mps 758 mmHg 50%
08:00 +17°C° 0 mm 5 mps 758 mmHg 48%
09:00 +20°C° 0 mm 5 mps 758 mmHg 45%
10:00 +22°C° 0 mm 6 mps 757 mmHg 42%
11:00 +24°C° 0 mm 6 mps 757 mmHg 38%
12:00 +27°C° 0 mm 6 mps 757 mmHg 35%
13:00 +27°C° 0 mm 6 mps 757 mmHg 34%
14:00 +28°C° 0 mm 6 mps 756 mmHg 34%
15:00 +29°C° 0 mm 5 mps 756 mmHg 33%
16:00 +28°C° 0 mm 5 mps 756 mmHg 35%
17:00 +27°C° 0 mm 4 mps 756 mmHg 37%
18:00 +26°C° 0 mm 3 mps 756 mmHg 39%
19:00 +25°C° 0 mm 4 mps 756 mmHg 43%
20:00 +22°C° 0 mm 4 mps 756 mmHg 47%
21:00 +21°C° 0 mm 4 mps 756 mmHg 51%
22:00 +20°C° 0 mm 4 mps 756 mmHg 52%
23:00 +20°C° 0 mm 4 mps 756 mmHg 52%
Show more